Vorticity
8 7 6 8 11 11 9 10 6 5 5 5 5 4 5 6 4 7 6 5 6 7
7 7 8 9 9 8 9 8 5 5 6 6 5 5 4 7 7 8 7 7 7 8
8 7 8 8 8 8 6 7 7 7 8 7 6 5 7 9 9 9 8 6 8 8
6 8 8 8 6 5 5 6 7 7 7 8 6 7 9 11 10 9 8 5 6 6
7 8 7 5 3 4 5 6 7 7 8 7 8 11 11 11 8 9 6 5 5 9
8 7 5 5 6 6 7 7 8 9 9 10 11 10 9 10 9 6 7 6 10 9
8 7 6 7 6 7 8 10 11 11 9 9 10 10 9 8 8 8 8 10 11 7
9 7 7 7 8 9 11 11 9 8 9 9 10 10 10 9 7 9 10 9 8 5
8 8 8 8 10 12 9 8 9 10 10 10 10 10 9 9 10 9 9 8 4 4
8 9 8 12 10 9 9 9 9 10 10 9 9 9 10 9 8 8 8 3 7 5
10 9 13 9 10 9 8 10 8 7 8 10 9 10 8 8 6 7 6 6 7 5
10 11 9 10 8 8 7 6 7 9 10 7 9 7 7 5 5 7 5 6 5 6
9 8 9 7 6 6 6 6 8 7 6 6 6 6 5 6 6 3 4 6 6 8
7 7 6 5 5 5 5 7 7 6 7 6 5 5 4 3 4 4 4 4 4 7
Height
5799 5799 5799 5799 5799 5798 5797 5796 5795 5793 5791 5789 5787 5784 5781 5778 5775 5771 5767 5762 5757 5751
5792 5792 5792 5791 5790 5790 5789 5787 5786 5784 5782 5780 5778 5775 5772 5769 5765 5761 5756 5751 5746 5741
5783 5783 5783 5783 5783 5782 5781 5779 5778 5776 5774 5772 5769 5766 5763 5760 5756 5751 5747 5741 5737 5731
5775 5775 5775 5775 5775 5775 5774 5772 5770 5768 5766 5763 5760 5758 5755 5750 5746 5742 5737 5732 5727 5721
5767 5767 5767 5768 5768 5768 5766 5764 5762 5760 5757 5755 5752 5749 5745 5741 5737 5733 5728 5723 5717 5711
5760 5761 5761 5761 5761 5760 5758 5756 5754 5752 5749 5747 5744 5740 5736 5733 5729 5724 5719 5713 5707 5700
5753 5754 5754 5754 5752 5751 5749 5748 5746 5744 5742 5738 5735 5732 5728 5725 5720 5714 5709 5702 5696 5689
5746 5746 5746 5745 5744 5743 5742 5741 5739 5736 5733 5730 5727 5724 5720 5716 5710 5705 5698 5691 5685 5678
5737 5738 5737 5737 5737 5736 5735 5733 5730 5728 5725 5722 5719 5716 5712 5707 5702 5695 5689 5682 5674 5666
5729 5729 5730 5730 5730 5728 5727 5725 5722 5720 5717 5715 5712 5709 5704 5698 5692 5685 5679 5672 5663 5654
5721 5722 5722 5722 5722 5721 5720 5718 5716 5713 5710 5708 5705 5700 5695 5689 5682 5676 5669 5661 5653 5643
5713 5714 5715 5715 5715 5714 5713 5711 5709 5706 5704 5701 5697 5692 5686 5680 5673 5666 5659 5651 5642 5633
5706 5707 5708 5708 5708 5707 5705 5704 5701 5700 5698 5694 5689 5683 5677 5671 5664 5658 5650 5641 5630 5620
5698 5700 5700 5701 5700 5699 5698 5696 5695 5693 5690 5685 5681 5674 5668 5662 5655 5648 5640 5631 5620 5609